COSMOS 2436 (723)

Last updated on Tue Jan 14 2025 00:03:10 GMT+0000 (Coordinated Universal Time)

1 32395U 07065C 25013.55689157 .00000077 00000+0 00000+0 0 9999 2 32395 64.3255 209.5206 0017586 10.0177 100.8111 2.13100123132658
UTC large
Height (km)
Speed (km/s)
/
Latitude / Longitude
Inclination (degrees)
Orbital Period (minutes)
Azimuth
Elevation
Range (km)
Doppler Factor

Next 0 passes for location: London (51.5072 / 0.1276)

Sorry there are no passes over London.